This demonstration page uses our WeatherBlox Daily Observations layout. Learn more.

Left ArrowRight Arrow

39.51506, -84.39828

Hourly Observations for July 22, 2021

Temp ( °F °C ) Dew Point ( °F °C ) Humidity (%) Winds ( mph kmh ) Pressure ( in mb ) Visibility ( mi km ) Precip ( " mm )
12:15 am 00:15 Clear 63 17 N/A N/A N 3 6 30.17 1022 7 11 N/A
12:35 am 00:35 Clear 63 17 N/A N/A N 5 7 30.18 1022 10 16 N/A
12:55 am 00:55 Clear 63 17 N/A N/A NNE 3 6 30.18 1022 10 16 N/A
1:15 am 01:15 Clear 63 17 63 17 100 100 NE 3 6 30.18 1022 10 16 N/A
1:35 am 01:35 Clear 63 17 N/A N/A N 3 6 30.18 1022 10 16 N/A
1:55 am 01:55 Clear 61 16 N/A N/A N 3 6 30.18 1022 7 11 N/A
2:15 am 02:15 Hazy 61 16 N/A N/A NNW 3 6 30.18 1022 7 11 N/A
2:35 am 02:35 Clear 61 16 N/A N/A NNW 3 6 30.18 1022 7 11 N/A
2:55 am 02:55 Hazy 61 16 N/A N/A N N/A 30.18 1022 7 11 N/A
3:15 am 03:15 Hazy 61 16 N/A N/A NNW 3 6 30.19 1022 7 11 N/A
3:35 am 03:35 Hazy 59 15 N/A N/A N 3 6 30.20 1023 5 8 N/A
3:55 am 03:55 Hazy 59 15 N/A N/A N 5 7 30.20 1023 7 11 N/A
4:15 am 04:15 Clear with Mist and Fog 59 15 N/A N/A N N/A 30.20 1023 3 5 N/A
4:35 am 04:35 Hazy 59 15 N/A N/A N N/A 30.21 1023 4 6 N/A
4:55 am 04:55 Hazy 57 14 N/A N/A N N/A 30.21 1023 4 6 N/A
5:15 am 05:15 Hazy 57 14 N/A N/A NNE 5 7 30.20 1023 5 8 N/A
5:35 am 05:35 Hazy 57 14 N/A N/A ENE 3 6 30.21 1023 5 8 N/A
5:55 am 05:55 Hazy 57 14 N/A N/A N N/A 30.21 1023 7 11 N/A
6:15 am 06:15 Hazy 57 14 N/A N/A N N/A 30.22 1023 7 11 N/A
6:35 am 06:35 Hazy 57 14 N/A N/A N N/A 30.23 1024 4 6 N/A
6:55 am 06:55 Hazy 57 14 N/A N/A NE 3 6 30.23 1024 5 8 N/A
7:15 am 07:15 Hazy 57 14 N/A N/A NNE 3 6 30.23 1024 5 8 N/A
7:35 am 07:35 Hazy 57 14 N/A N/A N N/A 30.23 1024 4 6 N/A
7:55 am 07:55 Hazy 59 15 N/A N/A N N/A 30.24 1024 5 8 N/A
8:15 am 08:15 Sunny 62 16.4 61 16.2 99 99 N N/A 30.23 1024 7 11 N/A
8:35 am 08:35 Sunny 64 17.6 62 16.7 95 95 N N/A 30.24 1024 10 16 N/A
8:55 am 08:55 Sunny 65 18.4 62 16.5 89 89 N N/A 30.24 1024 10 16 N/A
9:15 am 09:15 Sunny 66 18.9 61 16.3 85 85 N N/A 30.24 1024 10 16 N/A
9:35 am 09:35 Sunny 68 19.9 63 17 83 83 ENE 3 6 30.24 1024 10 16 N/A
9:55 am 09:55 Sunny 69 20.4 62 16.7 79 79 NNE 3 6 30.24 1024 10 16 N/A
10:15 am 10:15 Sunny 70 21 62 16.7 77 77 N N/A 30.24 1024 10 16 N/A
10:35 am 10:35 Sunny 71 21.8 60 15.7 68 68 NNE 3 6 30.24 1024 10 16 N/A
10:55 am 10:55 Sunny 73 22.6 60 15.3 64 64 N 3 6 30.24 1024 10 16 N/A
11:15 am 11:15 Sunny 73 23 57 14.1 57 57 NE 3 6 30.23 1024 10 16 N/A
11:35 am 11:35 Sunny 74 23.6 56 13.5 53 53 NNE 5 7 30.23 1024 10 16 N/A
11:55 am 11:55 Sunny 74 23.4 58 14.6 58 58 N N/A 30.23 1024 10 16 N/A
12:15 pm 12:15 Sunny 75 24.1 60 15.3 58 58 E 8 13 30.22 1024 7 11 N/A
12:35 pm 12:35 Hazy 76 24.3 59 14.9 56 56 ENE 5 7 30.22 1024 7 11 N/A
12:55 pm 12:55 Sunny 76 24.5 58 14.6 54 54 E 6 9 30.21 1023 10 16 N/A
1:15 pm 13:15 Sunny 76 24.6 58 14.4 53 53 E 3 6 30.21 1023 10 16 N/A
1:35 pm 13:35 Sunny 76 24.7 59 15.1 55 55 SSE 3 6 30.20 1023 10 16 N/A
1:55 pm 13:55 Sunny 77 25.1 59 15.1 54 54 N 5 7 30.20 1023 10 16 N/A
2:15 pm 14:15 Sunny 78 25.5 58 14.3 50 50 N N/A 30.19 1022 10 16 N/A
2:35 pm 14:35 Sunny 78 25.4 57 13.9 49 49 NNE 3 6 30.18 1022 10 16 N/A
2:55 pm 14:55 Sunny 79 26.1 58 14.7 50 50 NE 7 11 30.18 1022 10 16 N/A
3:15 pm 15:15 Sunny 79 26 59 15 51 51 ENE 5 7 30.18 1022 10 16 N/A
3:35 pm 15:35 Sunny 78 25.8 57 13.9 48 48 NE 3 6 30.18 1022 7 11 N/A
3:55 pm 15:55 Sunny 80 26.4 59 15 50 50 N N/A 30.17 1022 7 11 N/A
4:15 pm 16:15 Sunny 80 26.6 58 14.6 48 48 N 5 7 30.17 1022 10 16 N/A
4:35 pm 16:35 Sunny 80 26.6 58 14.5 47 47 N N/A 30.17 1022 7 11 N/A
4:55 pm 16:55 Sunny 80 26.6 58 14.3 47 47 N N/A 30.17 1022 10 16 N/A
5:15 pm 17:15 Sunny 80 26.8 59 14.8 48 48 SE 3 6 30.16 1021 10 16 N/A
5:35 pm 17:35 Sunny 80 26.8 59 15.1 49 49 N N/A 30.16 1021 10 16 N/A
5:55 pm 17:55 Sunny 80 26.9 59 14.9 48 48 N N/A 30.16 1021 10 16 N/A
6:15 pm 18:15 Sunny 80 26.7 60 15.4 50 50 NE 6 9 30.16 1021 10 16 N/A
6:35 pm 18:35 Sunny 80 26.6 60 15.3 50 50 NNE 3 6 30.16 1021 10 16 N/A
6:55 pm 18:55 Sunny 79 26.1 60 15.7 53 53 NNE 3 6 30.16 1021 10 16 N/A
7:15 pm 19:15 Sunny 78 25.6 62 16.5 57 57 N 3 6 30.17 1022 10 16 N/A
7:35 pm 19:35 Sunny 78 25.6 62 16.6 58 58 N 3 6 30.17 1022 10 16 N/A
7:55 pm 19:55 Sunny 77 25.2 61 15.9 56 56 ESE 6 9 30.17 1022 10 16 N/A
8:15 pm 20:15 Sunny 74 23.5 64 17.5 69 69 ESE 5 7 30.18 1022 10 16 N/A
8:35 pm 20:35 Sunny 73 22.6 65 18.4 77 77 N N/A 30.18 1022 10 16 N/A
8:55 pm 20:55 Sunny 70 21 67 19.4 91 91 ENE 3 6 30.18 1022 10 16 N/A
9:15 pm 21:15 Clear 69 20.4 67 19.4 94 94 ENE 3 6 30.19 1022 10 16 N/A
9:35 pm 21:35 Clear 68 20 67 19.4 96 96 N N/A 30.19 1023 10 16 N/A
9:55 pm 21:55 Clear 68 19.8 67 19.3 97 97 N N/A 30.20 1023 10 16 N/A
10:15 pm 22:15 Clear 67 19.5 66 18.8 96 96 N N/A 30.20 1023 10 16 N/A
10:35 pm 22:35 Clear 66 18.9 66 18.8 99 99 N N/A 30.21 1023 10 16 N/A
10:55 pm 22:55 Clear 65 18.6 65 18.4 99 99 N N/A 30.21 1023 10 16 N/A
11:15 pm 23:15 Clear 65 18.2 65 18.1 99 99 N N/A 30.20 1023 10 16 N/A
11:35 pm 23:35 Clear 64 18 N/A N/A N N/A 30.20 1023 10 16 N/A
11:55 pm 23:55 Clear 64 18 N/A N/A N N/A 30.20 1023 10 16 N/A

Powered by AerisWeather